Location: Marcé
(47.5801°N, 0.3280°W)
Time: 22:03:56
(UTC+01:00)

Tiangong - Pass Details

Date: 24 October 2021
Orbit: 379 x 384 km, 41.5° (Epoch: 06 December)

Event Time Altitude Azimuth Distance (km) Brightness Sun altitude
Rises 20:22:24 0° 256° (WSW) 2,273 6.7 -15.0°
Reaches altitude 10° 20:24:40 10° 244° (WSW) 1,416 5.0 -15.4°
Maximum altitude 20:27:24 26° 185° (S) 804 2.7 -15.9°
Enters shadow 20:28:28 21° 152° (SSE) 923 2.7 -16.1°
